Regional Weather Roundup
Issued by NWS

Home | Current Version | Previous Version | Graphics & Text | Print | Product List | Glossary On
Versions: 1 2 3 4 5 6 7 8 9 10 11 12 13 14 15 16 17 18 19 20 21 22 23 24 25 26 27 28 29 30 31 32 33 34 35 36 37 38 39 40 41 42 43 44 45 46 47 48 49 50
000
ASUS43 KDTX 210410
RWRMI
MICHIGAN HOURLY REGIONAL WEATHER ROUNDUP
NATIONAL WEATHER SERVICE DETROIT/PONTIAC MI
1100 PM EST MON NOV 20 2017

NOTE: "FAIR" INDICATES FEW OR NO CLOUDS BELOW 12,000 FEET WITH NO
SIGNIFICANT WEATHER AND/OR OBSTRUCTION TO VISIBILITY.

MIZ047>049-052>055-059>063-066>070-074>076-081>083-210500-
SOUTHEAST LOWER MICHIGAN

CITY           SKY/WX    TMP DP  RH WIND       PRES   REMARKS
ADRIAN         CLEAR     38  26  62 SW14      29.85R WCI  30
ALMA           CLEAR     42  30  63 SW16G22   29.70F
ANN ARBOR      CLEAR     39  27  62 S12       29.83R WCI  32
BAD AXE        CLEAR     42  28  56 SW17G25   29.69S
CARO           CLEAR     42  28  56 S18G29    29.70S
DETROIT CITY   CLEAR    N/A N/A N/A SW16G30   29.81F
DETROIT        PTCLDY    40  27  59 S16       29.82F WCI  31
FLINT          CLEAR     42  26  53 SW15G22   29.76S
GROSSE ILE     CLEAR     42  28  59 SW13G25   29.82F
HILLSDALE      CLEAR     37  27  65 S10G17    29.82R WCI  30
HOWELL         CLEAR     40  27  58 S12G18    29.78S WCI  34

CITY           SKY/WX    TMP DP  RH WIND       PRES   REMARKS
JACKSON        CLEAR     41  24  51 S17G25    29.80S
LAMBERTVILLE   CLEAR     41  27  55 SW12G18   29.85F
LANSING        CLEAR     42  27  55 SW21      29.76S
LAPEER         FAIR      42  26  52 SW16G22   29.75S
MASON          CLEAR     42  26  52 SW7       29.78S
MONROE         CLEAR     41  25  53 S13G18    29.83F
MT. CLEMENS    PTCLDY    42  27  55 SW15G30   29.79S
PONTIAC        MOCLDY    41  26  55 SW15G26   29.79R
PORT HOPE        N/A     44  28  53 SW13G26   29.65S
PORT HURON     CLEAR     41  28  60 S10G18    29.79S
TRI CITIES     CLEAR     44  30  57 SW18G31   29.69F
MIDLAND        FAIR      43  30  60 SW13G24   29.66F
TROY           CLEAR     44  25  46 SW16G25   29.82S
SAGINAW HB     CLEAR     41  30  65 S22       29.70F
$$
MIZ043>046-050>051-056>058-064>065-071>073-077>080-210500-
SOUTHWEST LOWER MICHIGAN

CITY           SKY/WX    TMP DP  RH WIND       PRES   REMARKS
BATTLE CREEK   CLEAR     41  26  55 SW21      29.78F
BENTON HARBOR  CLEAR     43  27  53 S15G23    29.76F
BIG RAPIDS     PTCLDY    44  33  63 SW13G25   29.62F
COLDWATER      CLEAR     40  23  49 SW15      29.82R WCI  32
FREMONT        FAIR      46  36  68 SW21G33   29.64F
HOLLAND        CLOUDY    45  31  58 SW25G40   29.71F
GRAND RAPIDS   PTCLDY    43  30  60 S18G25    29.71F
IONIA          FAIR      42  28  55 SW18G26   29.71F
KALAMAZOO      CLEAR     43  24  47 S20G29    29.78F
LUDINGTON      CLOUDY    47  37  69 SW24G33   29.57S
MARSHALL       CLEAR     41  24  52 S14G21    29.79F
MOUNT PLEASANT CLEAR     44  29  55 SW14G20   29.66S
MUSKEGON       CLOUDY    48  35  60 S25G40    29.66F
SOUTH HAVEN    CLEAR     45  28  52 S15G21    29.74F
$$
MIZ016>042-210500-
NORTHERN LOWER MICHIGAN

CITY           SKY/WX    TMP DP  RH WIND       PRES   REMARKS
ALPENA         PTCLDY    42  32  67 SW12      29.54F
BEAVER ISLAND  MOCLDY    49  39  67 SW17G33   29.40F
BELLAIRE       PTCLDY    47  37  69 S15G23    29.49F
CADILLAC       MOCLDY    43  34  70 SW22G32   29.55F
CHARLEVOIX     PTCLDY    47  36  65 S18G30    29.47F
FRANKFORT      CLOUDY    49  39  68 S22G37    29.50F
GAYLORD        PTCLDY    43  32  65 SW22G39   29.48F
GRAYLING       PTCLDY    43  32  66 SW15G24   29.54F
HARBOR SPRINGS CLEAR     47  35  64 SW18G28   29.44F
MANISTEE       CLOUDY    49  37  63 S18G31    29.54F
OSCODA         PTCLDY    41  29  63 SW14G20   29.60F
PELLSTON       CLEAR     46  35  65 SW14G23   29.45F
ROGERS CITY    MOCLDY    41  32  69 S10       29.50F
TRAVERSE CITY  PTCLDY    49  35  58 SW16G25   29.49F
$$
MIZ007>008-015-210500-
EASTERN UPPER MICHIGAN

CITY           SKY/WX    TMP DP  RH WIND       PRES   REMARKS
KINROSS        PTCLDY    38  34  85 S8        29.42F WCI  32
MACKINAC ISLAN PTCLDY    45  34  66 S14G25    29.41F
NEWBERRY       CLOUDY    43  40  89 S16G23    29.35F
S. S. MARIE    CLOUDY    40  34  79 SE9       29.42F WCI  34
MUNISING         N/A     44  35  70 SW17G32   29.28F
$$
MIZ004>006-011>014-085-210500-
CENTRAL UPPER MICHIGAN

CITY           SKY/WX    TMP DP  RH WIND       PRES   REMARKS
MANISTIQUE     PTCLDY    45  37  74 SW16G25   29.36F
ESCANABA       PTCLDY    43  34  70 SW12      29.35F
MENOMINEE      PTCLDY    47  32  56 SW10G20   29.40F
SAWYER-GWINN   CLEAR     33  30  88 S10       29.28F WCI  25
$$
MIZ001>003-009>011-084-210500-
WESTERN UPPER MICHIGAN

CITY           SKY/WX    TMP DP  RH WIND       PRES   REMARKS
IRON MOUNTAIN  CLEAR     37  28  70 S8        29.31F WCI  31
HOUGHTON       PTCLDY    41  29  62 W17G26    29.21F
COPPER HARBOR    N/A     39  29  67 SW8       29.19F WCI  33
IRONWOOD       CLOUDY    40  28  62 SW14      29.29F WCI  32
$$

ABBREVIATIONS USED IN REMARKS
   TC - TEMPERATURE IN CELSIUS
  WCI - WIND CHILL INDEX
   HX - HEAT INDEX
  VSB - VISIBILITY





USA.gov is the U.S. government's official web portal to all federal, state and local government web resources and services.